• In Hungary
  • List of Countries
  • For 7 days
  • Water Temperature
  • Satellite Maps
  • Weather Map
  • News
  • Weather Widgets
  • user-avatar
    Login

    Hourly Weather Grabka

    Today, 19 September, Wednesday

    Time Temperature Precipitation Wind Pressure Humidity
    00:00 +15°C° 0 mm 2 mps 719 mmHg 75%
    01:00 +14°C° 0 mm 2 mps 719 mmHg 75%
    02:00 +14°C° 0 mm 2 mps 719 mmHg 75%
    03:00 +14°C° 0 mm 2 mps 719 mmHg 75%
    04:00 +13°C° 0 mm 2 mps 719 mmHg 75%
    05:00 +14°C° 0 mm 2 mps 719 mmHg 72%
    06:00 +15°C° 0 mm 2 mps 719 mmHg 69%
    07:00 +16°C° 0 mm 2 mps 719 mmHg 67%
    08:00 +18°C° 0 mm 2 mps 720 mmHg 59%
    09:00 +20°C° 0 mm 3 mps 720 mmHg 51%
    10:00 +24°C° 0 mm 3 mps 720 mmHg 43%
    11:00 +24°C° 0 mm 3 mps 720 mmHg 42%
    12:00 +25°C° 0 mm 3 mps 720 mmHg 41%
    13:00 +26°C° 0 mm 3 mps 720 mmHg 40%
    14:00 +25°C° 0 mm 3 mps 720 mmHg 42%
    15:00 +25°C° 0 mm 2 mps 720 mmHg 45%
    16:00 +25°C° 0 mm 2 mps 719 mmHg 48%
    17:00 +23°C° 0 mm 2 mps 719 mmHg 54%
    18:00 +20°C° 0 mm 2 mps 720 mmHg 60%
    19:00 +19°C° 0 mm 1 mps 720 mmHg 66%
    20:00 +18°C° 0 mm 1 mps 720 mmHg 68%
    21:00 +16°C° 0 mm 2 mps 720 mmHg 69%
    22:00 +16°C° 0 mm 2 mps 720 mmHg 71%
    23:00 +16°C° 0 mm 2 mps 720 mmHg 71%

    Tomorrow, 20 September, Thursday

    Time Temperature Precipitation Wind Pressure Humidity
    00:00 +15°C° 0 mm 2 mps 720 mmHg 71%
    01:00 +15°C° 0 mm 2 mps 720 mmHg 71%
    02:00 +15°C° 0 mm 2 mps 720 mmHg 72%
    03:00 +14°C° 0 mm 2 mps 719 mmHg 72%
    04:00 +14°C° 0 mm 2 mps 719 mmHg 72%
    05:00 +15°C° 0 mm 2 mps 719 mmHg 70%
    06:00 +16°C° 0 mm 2 mps 720 mmHg 68%
    07:00 +16°C° 0 mm 2 mps 720 mmHg 67%
    08:00 +20°C° 0 mm 1 mps 720 mmHg 60%
    09:00 +22°C° 0 mm 1 mps 720 mmHg 53%
    10:00 +24°C° 0 mm 1 mps 721 mmHg 46%
    11:00 +25°C° 0 mm 1 mps 721 mmHg 45%
    12:00 +26°C° 0 mm 1 mps 720 mmHg 43%
    13:00 +27°C° 0 mm 1 mps 720 mmHg 41%
    14:00 +26°C° 0 mm 1 mps 720 mmHg 43%
    15:00 +26°C° 0 mm 1 mps 720 mmHg 46%
    16:00 +26°C° 0 mm 1 mps 719 mmHg 48%
    17:00 +24°C° 0 mm 1 mps 719 mmHg 54%
    18:00 +22°C° 0 mm 1 mps 719 mmHg 61%
    19:00 +19°C° 0 mm 1 mps 719 mmHg 67%
    20:00 +19°C° 0 mm 1 mps 719 mmHg 69%
    21:00 +18°C° 0 mm 1 mps 719 mmHg 71%
    22:00 +18°C° 0 mm 1 mps 719 mmHg 72%
    23:00 +18°C° 0 mm 1 mps 719 mmHg 74%

    Day after tomorrow, 21 September, Friday

    Time Temperature Precipitation Wind Pressure Humidity
    00:00 +16°C° 0 mm 1 mps 718 mmHg 75%
    01:00 +16°C° 0 mm 1 mps 718 mmHg 76%
    02:00 +16°C° 0 mm 2 mps 718 mmHg 77%
    03:00 +15°C° 0 mm 2 mps 718 mmHg 78%
    04:00 +15°C° 0 mm 2 mps 717 mmHg 78%
    05:00 +16°C° 0 mm 2 mps 717 mmHg 76%
    06:00 +16°C° 0 mm 2 mps 718 mmHg 74%
    07:00 +17°C° 0 mm 2 mps 718 mmHg 72%
    08:00 +19°C° 0 mm 2 mps 718 mmHg 63%
    09:00 +22°C° 0 mm 3 mps 718 mmHg 55%
    10:00 +25°C° 0 mm 3 mps 718 mmHg 46%
    11:00 +26°C° 0 mm 4 mps 718 mmHg 44%
    12:00 +27°C° 0 mm 4 mps 717 mmHg 41%
    13:00 +27°C° 0 mm 4 mps 717 mmHg 39%
    14:00 +27°C° 0 mm 4 mps 716 mmHg 41%
    15:00 +26°C° 0 mm 4 mps 716 mmHg 43%
    16:00 +26°C° 0 mm 4 mps 715 mmHg 46%
    17:00 +23°C° 0 mm 4 mps 715 mmHg 50%
    18:00 +21°C° 0 mm 3 mps 715 mmHg 55%
    19:00 +19°C° 0 mm 3 mps 715 mmHg 60%
    20:00 +19°C° 0 mm 3 mps 715 mmHg 59%
    21:00 +18°C° 0 mm 3 mps 715 mmHg 58%
    22:00 +18°C° 0 mm 3 mps 715 mmHg 57%
    23:00 +18°C° 0 mm 3 mps 715 mmHg 56%

    22 September, Saturday

    Time Temperature Precipitation Wind Pressure Humidity
    00:00 +18°C° 0 mm 3 mps 714 mmHg 56%
    01:00 +18°C° 0 mm 3 mps 714 mmHg 55%
    02:00 +17°C° 0 mm 3 mps 714 mmHg 54%
    03:00 +17°C° 0 mm 3 mps 714 mmHg 54%
    04:00 +17°C° 0 mm 3 mps 715 mmHg 53%
    05:00 +17°C° 0.3 mm 3 mps 715 mmHg 59%
    06:00 +17°C° 0.3 mm 3 mps 716 mmHg 65%
    07:00 +17°C° 0.3 mm 3 mps 716 mmHg 71%
    08:00 +16°C° 1.2 mm 3 mps 717 mmHg 75%
    09:00 +13°C° 1.2 mm 3 mps 717 mmHg 80%
    10:00 +12°C° 1.2 mm 4 mps 718 mmHg 85%
    11:00 +12°C° 1 mm 3 mps 718 mmHg 86%
    12:00 +11°C° 1 mm 3 mps 718 mmHg 87%
    13:00 +10°C° 1 mm 2 mps 719 mmHg 87%
    14:00 +10°C° 1 mm 2 mps 719 mmHg 88%
    15:00 +10°C° 1 mm 2 mps 719 mmHg 88%
    16:00 +10°C° 1 mm 1 mps 719 mmHg 88%
    17:00 +10°C° 0.5 mm 1 mps 720 mmHg 87%
    18:00 +10°C° 0.5 mm 1 mps 720 mmHg 86%
    19:00 +10°C° 0.5 mm 1 mps 720 mmHg 86%
    20:00 +9°C° 0 mm 1 mps 720 mmHg 86%
    21:00 +9°C° 0 mm 1 mps 720 mmHg 86%
    22:00 +8°C° 0 mm 1 mps 720 mmHg 86%
    23:00 +8°C° 0 mm 1 mps 720 mmHg 87%

    23 September, Sunday

    Time Temperature Precipitation Wind Pressure Humidity
    00:00 +6°C° 0 mm 2 mps 720 mmHg 87%
    01:00 +6°C° 0 mm 2 mps 720 mmHg 87%
    02:00 +6°C° 0 mm 2 mps 720 mmHg 88%
    03:00 +6°C° 0 mm 2 mps 720 mmHg 88%
    04:00 +5°C° 0 mm 2 mps 721 mmHg 88%
    05:00 +6°C° 0 mm 2 mps 721 mmHg 86%
    06:00 +7°C° 0 mm 2 mps 721 mmHg 84%
    07:00 +7°C° 0 mm 2 mps 721 mmHg 82%
    08:00 +9°C° 0 mm 2 mps 721 mmHg 73%
    09:00 +12°C° 0 mm 2 mps 721 mmHg 63%
    10:00 +14°C° 0 mm 2 mps 721 mmHg 54%
    11:00 +15°C° 0 mm 2 mps 720 mmHg 49%
    12:00 +16°C° 0 mm 2 mps 720 mmHg 44%
    13:00 +17°C° 0 mm 2 mps 719 mmHg 39%
    14:00 +17°C° 0 mm 3 mps 718 mmHg 41%
    15:00 +17°C° 0 mm 3 mps 718 mmHg 43%
    16:00 +16°C° 0 mm 3 mps 717 mmHg 44%
    17:00 +14°C° 0 mm 3 mps 716 mmHg 49%
    18:00 +12°C° 0 mm 3 mps 715 mmHg 54%
    19:00 +11°C° 0 mm 3 mps 715 mmHg 59%
    20:00 +10°C° 0 mm 3 mps 714 mmHg 58%
    21:00 +10°C° 0 mm 3 mps 714 mmHg 57%
    22:00 +10°C° 0 mm 3 mps 713 mmHg 56%
    23:00 +10°C° 0 mm 3 mps 712 mmHg 55%

    24 September, Monday

    Time Temperature Precipitation Wind Pressure Humidity
    00:00 +10°C° 0 mm 3 mps 711 mmHg 53%
    01:00 +10°C° 0 mm 3 mps 710 mmHg 52%
    02:00 +10°C° 0 mm 3 mps 710 mmHg 54%
    03:00 +10°C° 0 mm 3 mps 709 mmHg 56%
    04:00 +10°C° 0 mm 2 mps 709 mmHg 57%
    05:00 +10°C° 0.1 mm 3 mps 709 mmHg 63%
    06:00 +10°C° 0.1 mm 3 mps 709 mmHg 68%
    07:00 +10°C° 0.1 mm 4 mps 709 mmHg 73%
    08:00 +10°C° 0.1 mm 4 mps 710 mmHg 74%
    09:00 +11°C° 0.1 mm 4 mps 710 mmHg 76%
    10:00 +10°C° 0.1 mm 5 mps 710 mmHg 78%
    11:00 +10°C° 0.4 mm 5 mps 710 mmHg 79%
    12:00 +9°C° 0.4 mm 5 mps 710 mmHg 81%
    13:00 +10°C° 0.4 mm 4 mps 709 mmHg 83%
    14:00 +10°C° 0.1 mm 4 mps 709 mmHg 81%
    15:00 +9°C° 0.1 mm 5 mps 709 mmHg 80%
    16:00 +9°C° 0.1 mm 5 mps 709 mmHg 79%
    17:00 +9°C° 0 mm 5 mps 708 mmHg 80%
    18:00 +10°C° 0 mm 4 mps 708 mmHg 82%
    19:00 +10°C° 0 mm 4 mps 708 mmHg 84%
    20:00 +10°C° 0 mm 4 mps 709 mmHg 83%
    21:00 +9°C° 0 mm 5 mps 710 mmHg 82%
    22:00 +9°C° 0 mm 5 mps 710 mmHg 82%
    23:00 +8°C° 0.1 mm 5 mps 711 mmHg 82%
    Show more